Location: Poughquag
(41.6090°N, 73.6820°W)
Time: 14:52:04
(UTC-04:00)

Explorer 11/Cluster Stage 4 - Pass Details

Date: 03 June 2020
Orbit: 467 x 1259 km, 28.8° (Epoch: 05 July)

Event Time Altitude Azimuth Distance (km) Brightness Sun altitude
Rises 04:37:32 0° 206° (SSW) 3,068 - -7.6°
Exits shadow 04:38:50 - 198° (SSW) 2,755 8.9 -7.4°
Reaches altitude 10° 04:41:24 10° 176° (S) 2,346 8.7 -7.0°
Maximum altitude 04:43:31 12° 153° (SSE) 2,303 8.9 -6.7°
Drops below altitude 10° 04:45:47 10° 131° (SE) 2,564 9.4 -6.4°
Sets 04:50:31 0° 104° (ESE) 3,731 10.7 -5.7°
